Wind_Speed
60 63 65 65 61 53 46 46 54 62 66 73 81 88 89 102 108 117 126 123 115 114 110 104 97 91 87 79 76 77 82 74
75 75 75 73 65 57 48 40 40 47 50 56 71 77 82 88 98 106 124 126 120 117 111 106 99 93 88 81 77 76 76 79
79 76 78 81 68 56 49 39 35 33 38 45 56 68 76 84 94 105 117 128 122 118 114 109 102 94 89 80 78 76 70 71
81 79 82 83 78 64 52 39 32 28 28 35 43 53 69 87 89 98 107 126 124 121 116 112 105 97 90 81 77 77 72 72
79 84 84 88 87 72 59 44 29 22 23 25 31 41 55 75 85 94 109 119 124 124 119 114 106 101 93 84 80 82 75 77
81 87 90 91 91 84 67 53 39 27 20 18 23 31 45 59 76 89 106 115 124 128 121 117 107 103 97 87 85 85 80 79
85 88 93 97 96 93 79 63 47 31 21 15 16 24 38 55 69 82 103 110 121 128 123 118 108 104 99 90 90 91 85 81
85 88 93 98 101 98 89 71 56 41 27 15 9 17 33 48 67 82 99 106 117 126 125 119 109 104 100 93 93 93 87 84
85 90 96 101 102 104 100 84 65 50 34 19 8 10 26 40 62 82 97 105 113 123 124 119 110 103 101 96 94 95 89 84
83 89 94 99 105 104 104 96 77 59 41 27 14 2 20 35 52 73 92 106 110 122 124 119 111 104 102 97 93 95 93 90
81 85 90 97 101 105 103 101 89 69 51 34 20 6 11 30 47 66 86 100 108 120 123 118 112 105 104 98 96 94 92 93
77 82 87 91 95 100 104 103 98 81 63 45 27 13 7 21 39 62 80 92 105 118 121 117 112 106 104 100 97 96 91 90
76 79 82 88 93 97 101 103 102 93 73 56 39 21 9 14 29 47 72 84 98 113 119 117 113 108 104 101 98 96 94 93
72 77 80 85 89 92 96 99 100 99 87 66 49 32 17 14 21 39 57 79 92 108 116 115 113 110 105 103 100 100 96 97
70 73 77 82 85 90 92 95 96 95 94 81 58 40 25 15 20 33 51 71 85 102 113 114 114 111 106 105 104 103 99 98
67 70 75 79 81 83 88 91 92 93 89 90 76 51 33 19 13 26 47 67 80 93 110 113 114 111 109 104 108 100 101 98
64 66 70 74 78 82 84 87 90 89 88 86 85 72 49 28 15 18 39 63 76 86 102 112 113 113 110 108 105 109 105 99
62 65 70 73 75 77 81 82 85 86 85 81 81 78 67 44 25 12 30 54 71 82 94 108 109 111 112 110 108 105 107 104
58 63 67 70 71 75 77 79 80 81 82 81 77 73 70 60 40 16 20 44 60 78 88 100 106 107 111 109 110 106 106 105
Wind_Direction
355 351 342 336 334 325 311 291 274 266 257 249 246 242 232 226 223 218 220 219 216 217 220 219 218 220 219 223 224 225 224 223
9 4 356 349 344 334 325 305 286 273 264 249 240 239 235 225 220 216 216 219 214 214 216 217 217 217 218 219 220 222 221 222
14 10 5 360 350 344 339 324 303 281 267 249 241 235 231 227 222 214 212 215 214 212 212 215 215 215 215 215 217 221 216 213
19 15 13 7 1 353 349 340 324 303 273 256 243 232 227 223 222 213 209 213 211 210 210 213 213 213 213 212 214 218 212 216
21 18 16 15 11 3 356 352 336 310 289 261 245 231 223 221 215 209 209 210 208 209 208 210 211 212 212 210 209 213 212 219
24 21 20 17 16 12 4 360 355 339 309 275 251 231 218 214 211 207 208 207 204 207 206 208 209 210 210 207 205 211 212 217
25 24 23 21 19 18 14 5 1 356 334 303 256 232 213 211 203 202 204 203 202 203 204 206 206 207 208 206 204 208 210 215
27 26 25 25 22 21 19 14 7 5 0 337 280 224 209 208 201 196 200 201 201 200 202 204 203 205 206 204 204 208 208 213
27 27 27 26 25 23 22 21 14 10 8 3 337 229 209 204 200 199 200 201 200 198 201 202 201 203 204 203 205 208 206 210
28 28 26 26 25 25 24 22 21 16 13 11 9 239 203 204 197 199 198 199 198 197 199 201 199 202 203 202 203 208 208 211
28 28 28 26 26 26 26 24 23 22 18 16 20 40 187 197 201 195 196 196 197 195 198 199 199 201 202 202 203 208 208 210
29 27 27 27 25 26 27 27 25 25 24 21 26 44 145 190 195 199 197 197 196 195 197 198 198 201 202 201 202 208 209 210
30 29 28 28 27 26 28 28 28 26 27 27 29 40 85 168 194 197 200 199 197 196 197 198 199 201 202 201 202 209 210 211
27 27 26 26 26 27 25 28 29 28 27 29 31 38 60 128 171 191 201 199 198 196 197 198 200 201 203 201 200 210 212 213
29 27 26 26 25 24 24 25 28 31 30 29 32 36 51 99 151 177 192 198 198 197 198 199 201 202 204 204 201 210 214 216
26 25 25 25 25 24 23 24 25 30 33 32 32 34 41 66 123 171 184 193 199 198 199 201 203 205 206 208 206 206 215 216
24 24 25 24 24 25 24 24 25 26 31 35 34 33 36 44 76 149 182 190 196 200 201 201 205 207 208 209 211 211 214 217
20 20 20 22 21 20 20 22 22 24 27 33 35 37 36 40 48 110 173 188 194 199 202 204 206 209 210 211 213 215 217 218
13 14 15 17 19 17 19 18 20 19 23 27 31 36 41 41 44 71 162 185 194 198 202 206 208 212 215 215 217 218 221 223
Height
10533 10512 10489 10469 10449 10434 10422 10410 10401 10396 10398 10402 10409 10420 10442 10457 10479 10504 10532 10550 10581 10602 10622 10643 10662 10679 10697 10711 10723 10733 10748 10760
10519 10498 10478 10457 10436 10417 10402 10389 10380 10372 10371 10375 10377 10388 10406 10427 10447 10482 10501 10523 10555 10579 10602 10625 10646 10663 10682 10698 10710 10718 10733 10747
10516 10495 10474 10449 10427 10407 10389 10374 10362 10356 10351 10351 10356 10366 10380 10401 10420 10443 10474 10495 10532 10560 10585 10607 10630 10650 10668 10686 10698 10706 10721 10731
10516 10494 10471 10448 10419 10395 10378 10364 10351 10342 10338 10336 10339 10347 10358 10372 10396 10427 10447 10470 10505 10538 10568 10591 10615 10636 10656 10674 10687 10695 10709 10718
10512 10493 10470 10445 10420 10393 10371 10354 10342 10334 10327 10324 10325 10330 10339 10354 10376 10404 10426 10449 10487 10522 10550 10575 10601 10623 10643 10661 10675 10685 10698 10707
10510 10491 10465 10443 10419 10392 10368 10350 10336 10326 10320 10317 10315 10318 10326 10338 10360 10386 10413 10433 10470 10500 10530 10558 10586 10607 10629 10648 10662 10674 10688 10698
10509 10490 10469 10446 10420 10396 10372 10351 10336 10325 10316 10311 10310 10311 10318 10329 10345 10370 10395 10423 10450 10480 10513 10543 10571 10594 10616 10634 10649 10663 10677 10689
10512 10495 10474 10452 10430 10403 10380 10357 10338 10324 10314 10309 10308 10309 10314 10324 10341 10362 10385 10410 10434 10468 10499 10529 10559 10581 10603 10622 10638 10651 10667 10681
10516 10497 10477 10458 10436 10412 10388 10366 10346 10328 10318 10311 10308 10309 10313 10322 10336 10356 10377 10399 10426 10461 10489 10519 10548 10571 10592 10610 10627 10640 10657 10670
10520 10502 10484 10464 10444 10422 10399 10376 10355 10338 10324 10316 10311 10311 10315 10324 10336 10349 10367 10391 10419 10452 10480 10511 10539 10561 10580 10599 10616 10630 10646 10659
10522 10509 10492 10474 10455 10435 10414 10388 10367 10348 10333 10323 10317 10316 10319 10329 10340 10351 10366 10389 10417 10447 10473 10503 10531 10552 10570 10589 10606 10619 10632 10649
10529 10514 10499 10484 10467 10448 10427 10403 10379 10360 10345 10333 10326 10323 10326 10333 10345 10358 10372 10391 10415 10445 10470 10499 10524 10545 10563 10579 10596 10609 10624 10638
10533 10521 10507 10493 10476 10458 10439 10419 10397 10376 10359 10346 10337 10333 10333 10340 10351 10364 10379 10397 10420 10445 10468 10494 10517 10537 10555 10572 10588 10601 10614 10626
10537 10525 10513 10499 10484 10469 10451 10434 10415 10395 10374 10360 10350 10346 10344 10347 10357 10369 10385 10402 10422 10446 10469 10492 10513 10532 10549 10564 10581 10591 10604 10615
10543 10532 10521 10508 10493 10478 10465 10449 10434 10415 10396 10378 10367 10359 10357 10358 10363 10375 10390 10409 10426 10448 10471 10491 10511 10528 10544 10559 10574 10583 10595 10604
10547 10537 10526 10514 10503 10492 10477 10463 10449 10434 10418 10401 10385 10376 10371 10371 10374 10381 10393 10412 10432 10448 10470 10490 10510 10525 10540 10554 10566 10577 10586 10599
10550 10541 10532 10521 10511 10500 10489 10476 10463 10449 10437 10423 10410 10395 10387 10384 10384 10389 10399 10414 10434 10453 10471 10486 10502 10519 10533 10545 10559 10570 10580 10591
10553 10545 10536 10527 10517 10507 10497 10487 10476 10466 10454 10442 10431 10420 10407 10400 10399 10401 10407 10421 10436 10456 10474 10490 10503 10516 10526 10538 10550 10561 10571 10579
10557 10549 10540 10531 10522 10513 10505 10496 10488 10477 10468 10458 10448 10440 10431 10421 10416 10416 10421 10430 10443 10460 10475 10492 10505 10516 10526 10537 10545 10554 10561 10569